QPF
0.00 0.00 0.00 0.00 0.00 0.00 0.00 0.00 0.00 0.00 0.00 0.00 0.00 0.00 0.00 0.00 0.00 0.00 0.00 0.00 0.00 0.00 0.00 0.00 0.01 0.00 0.01 0.01 0.02 0.03 0.07 0.06 0.05 0.05 0.04 0.04 0.05 0.06 0.06 0.06 0.06 0.08 0.10 0.09
0.00 0.00 0.00 0.00 0.00 0.00 0.00 0.01 0.01 0.00 0.00 0.01 0.01 0.00 0.00 0.00 0.00 0.00 0.00 0.00 0.00 0.00 0.00 0.00 0.00 0.00 0.00 0.01 0.02 0.05 0.08 0.06 0.04 0.05 0.05 0.04 0.04 0.04 0.06 0.09 0.09 0.09 0.10 0.12
0.00 0.00 0.00 0.00 0.00 0.01 0.01 0.01 0.00 0.00 0.00 0.03 0.02 0.02 0.01 0.00 0.00 0.00 0.00 0.00 0.00 0.00 0.00 0.00 0.00 0.00 0.01 0.01 0.02 0.05 0.06 0.06 0.07 0.06 0.04 0.05 0.05 0.04 0.05 0.09 0.13 0.13 0.13 0.11
0.00 0.00 0.00 0.00 0.00 0.00 0.00 0.00 0.00 0.01 0.01 0.02 0.02 0.06 0.05 0.02 0.01 0.02 0.01 0.00 0.00 0.00 0.00 0.00 0.00 0.00 0.01 0.01 0.02 0.03 0.04 0.05 0.07 0.06 0.05 0.06 0.05 0.05 0.06 0.06 0.08 0.11 0.12 0.09
0.00 0.00 0.00 0.00 0.00 0.00 0.00 0.00 0.00 0.01 0.01 0.01 0.01 0.06 0.09 0.03 0.02 0.03 0.01 0.00 0.00 0.00 0.00 0.00 0.00 0.00 0.00 0.01 0.01 0.02 0.04 0.05 0.05 0.05 0.05 0.05 0.04 0.05 0.06 0.07 0.09 0.10 0.12 0.10
0.00 0.00 0.00 0.00 0.00 0.00 0.00 0.00 0.00 0.00 0.01 0.02 0.03 0.04 0.06 0.03 0.02 0.01 0.00 0.00 0.00 0.00 0.00 0.00 0.01 0.01 0.01 0.01 0.01 0.02 0.03 0.04 0.04 0.04 0.04 0.03 0.04 0.07 0.09 0.10 0.12 0.09 0.08 0.09
0.00 0.00 0.00 0.00 0.00 0.00 0.00 0.00 0.01 0.02 0.01 0.02 0.02 0.02 0.05 0.06 0.02 0.01 0.01 0.01 0.00 0.00 0.00 0.00 0.01 0.01 0.01 0.01 0.01 0.02 0.03 0.03 0.03 0.03 0.03 0.03 0.04 0.05 0.05 0.07 0.08 0.07 0.05 0.04
0.00 0.00 0.00 0.00 0.00 0.00 0.00 0.00 0.01 0.05 0.03 0.01 0.01 0.02 0.04 0.02 0.01 0.01 0.01 0.01 0.01 0.00 0.00 0.00 0.00 0.00 0.01 0.01 0.02 0.02 0.02 0.03 0.04 0.04 0.04 0.04 0.05 0.05 0.05 0.07 0.06 0.05 0.03 0.02
0.00 0.00 0.00 0.00 0.00 0.00 0.00 0.00 0.01 0.01 0.01 0.02 0.02 0.02 0.03 0.01 0.00 0.00 0.00 0.01 0.01 0.01 0.01 0.00 0.00 0.00 0.01 0.01 0.01 0.02 0.02 0.02 0.03 0.04 0.06 0.05 0.06 0.06 0.07 0.06 0.04 0.03 0.03 0.03
0.00 0.00 0.00 0.00 0.00 0.00 0.00 0.00 0.01 0.01 0.01 0.02 0.02 0.06 0.04 0.01 0.00 0.00 0.00 0.00 0.01 0.02 0.02 0.00 0.01 0.01 0.01 0.01 0.02 0.02 0.03 0.02 0.02 0.02 0.03 0.03 0.04 0.04 0.05 0.05 0.05 0.05 0.04 0.04
0.00 0.00 0.00 0.00 0.00 0.00 0.00 0.00 0.00 0.00 0.01 0.03 0.04 0.05 0.02 0.01 0.01 0.00 0.00 0.00 0.00 0.01 0.02 0.01 0.00 0.01 0.01 0.01 0.02 0.02 0.02 0.02 0.03 0.02 0.03 0.04 0.04 0.03 0.04 0.04 0.04 0.03 0.04 0.03
0.00 0.00 0.00 0.00 0.00 0.00 0.00 0.00 0.00 0.00 0.00 0.01 0.03 0.04 0.01 0.01 0.00 0.00 0.00 0.00 0.00 0.00 0.02 0.02 0.01 0.00 0.01 0.01 0.02 0.02 0.02 0.01 0.01 0.02 0.04 0.04 0.04 0.05 0.04 0.04 0.04 0.04 0.04 0.04
0.00 0.00 0.00 0.00 0.01 0.01 0.00 0.00 0.00 0.00 0.00 0.00 0.03 0.03 0.00 0.00 0.00 0.00 0.00 0.01 0.02 0.02 0.03 0.04 0.02 0.01 0.01 0.01 0.02 0.03 0.02 0.02 0.01 0.02 0.02 0.04 0.05 0.05 0.05 0.06 0.05 0.05 0.04 0.03
0.00 0.00 0.00 0.00 0.00 0.00 0.00 0.00 0.00 0.00 0.00 0.01 0.01 0.01 0.01 0.00 0.00 0.01 0.02 0.01 0.01 0.03 0.04 0.05 0.05 0.03 0.02 0.01 0.01 0.02 0.02 0.02 0.01 0.02 0.03 0.03 0.05 0.05 0.06 0.07 0.07 0.05 0.04 0.04
0.00 0.00 0.00 0.00 0.00 0.00 0.00 0.00 0.00 0.00 0.00 0.00 0.00 0.01 0.02 0.01 0.00 0.00 0.01 0.02 0.02 0.02 0.03 0.05 0.05 0.04 0.03 0.01 0.01 0.01 0.02 0.02 0.01 0.01 0.01 0.02 0.04 0.05 0.07 0.08 0.08 0.07 0.06 0.05
0.00 0.00 0.00 0.00 0.00 0.00 0.00 0.00 0.00 0.00 0.00 0.00 0.00 0.01 0.02 0.01 0.01 0.01 0.01 0.02 0.03 0.02 0.02 0.04 0.04 0.04 0.04 0.02 0.02 0.02 0.02 0.03 0.02 0.02 0.03 0.03 0.04 0.07 0.08 0.08 0.07 0.07 0.06 0.05
0.00 0.00 0.00 0.00 0.00 0.00 0.00 0.00 0.00 0.00 0.00 0.00 0.01 0.01 0.00 0.00 0.01 0.01 0.02 0.02 0.02 0.02 0.02 0.02 0.03 0.04 0.04 0.02 0.02 0.03 0.04 0.03 0.02 0.02 0.02 0.03 0.04 0.07 0.09 0.07 0.06 0.05 0.04 0.04
0.00 0.00 0.00 0.00 0.01 0.01 0.00 0.00 0.01 0.01 0.01 0.00 0.00 0.01 0.00 0.00 0.01 0.01 0.01 0.01 0.01 0.01 0.01 0.01 0.02 0.02 0.03 0.03 0.03 0.04 0.04 0.03 0.03 0.02 0.02 0.02 0.02 0.03 0.04 0.05 0.05 0.05 0.05 0.05
0.00 0.00 0.01 0.01 0.01 0.01 0.01 0.01 0.01 0.01 0.02 0.01 0.01 0.01 0.01 0.00 0.01 0.02 0.01 0.00 0.00 0.01 0.01 0.01 0.02 0.02 0.03 0.04 0.05 0.04 0.03 0.03 0.02 0.03 0.03 0.02 0.02 0.02 0.02 0.03 0.04 0.05 0.05 0.04
0.00 0.01 0.01 0.01 0.01 0.02 0.02 0.01 0.01 0.02 0.04 0.02 0.01 0.01 0.01 0.01 0.03 0.03 0.01 0.01 0.01 0.01 0.01 0.02 0.02 0.02 0.02 0.03 0.04 0.05 0.04 0.04 0.03 0.04 0.05 0.03 0.02 0.02 0.02 0.03 0.04 0.04 0.04 0.05
0.01 0.02 0.01 0.01 0.01 0.02 0.01 0.00 0.01 0.03 0.04 0.02 0.01 0.01 0.01 0.01 0.02 0.02 0.01 0.01 0.02 0.02 0.02 0.02 0.03 0.03 0.03 0.04 0.05 0.08 0.09 0.08 0.06 0.05 0.05 0.05 0.05 0.03 0.03 0.03 0.03 0.03 0.05 0.06
0.02 0.04 0.03 0.02 0.02 0.03 0.02 0.01 0.02 0.03 0.03 0.02 0.02 0.01 0.01 0.01 0.01 0.01 0.02 0.03 0.03 0.02 0.02 0.02 0.01 0.02 0.03 0.03 0.03 0.03 0.04 0.07 0.07 0.08 0.07 0.07 0.05 0.04 0.03 0.03 0.04 0.05 0.08 0.08
0.03 0.04 0.05 0.05 0.05 0.04 0.02 0.02 0.02 0.02 0.01 0.02 0.01 0.01 0.01 0.01 0.01 0.02 0.03 0.03 0.02 0.01 0.01 0.01 0.01 0.02 0.02 0.02 0.02 0.02 0.02 0.02 0.04 0.05 0.06 0.06 0.06 0.06 0.06 0.06 0.06 0.07 0.07 0.09
0.02 0.02 0.03 0.04 0.04 0.03 0.03 0.04 0.06 0.04 0.03 0.02 0.02 0.02 0.02 0.03 0.03 0.03 0.02 0.01 0.02 0.02 0.02 0.02 0.02 0.02 0.03 0.03 0.03 0.03 0.02 0.02 0.02 0.03 0.03 0.03 0.04 0.04 0.05 0.05 0.04 0.04 0.04 0.04
0.02 0.02 0.03 0.03 0.03 0.03 0.03 0.05 0.08 0.06 0.03 0.02 0.02 0.02 0.02 0.02 0.01 0.01 0.01 0.02 0.03 0.05 0.04 0.04 0.05 0.05 0.06 0.07 0.05 0.04 0.03 0.03 0.03 0.04 0.03 0.03 0.04 0.04 0.04 0.04 0.03 0.02 0.01 0.01
0.01 0.02 0.03 0.05 0.04 0.05 0.05 0.05 0.04 0.03 0.02 0.02 0.01 0.02 0.01 0.01 0.01 0.01 0.01 0.02 0.03 0.04 0.05 0.06 0.07 0.08 0.10 0.10 0.09 0.05 0.04 0.03 0.03 0.03 0.02 0.03 0.04 0.04 0.04 0.03 0.02 0.01 0.01 0.01
MSLP
1004.23 1004.70 1005.03 1005.23 1005.33 1005.36 1005.34 1005.29 1005.18 1005.01 1004.73 1004.36 1003.91 1003.42 1002.96 1002.60 1002.41 1002.42 1002.64 1003.06 1003.63 1004.29 1004.99 1005.67 1006.30 1006.90 1007.46 1008.00 1008.53 1009.05 1009.56 1010.02 1010.41 1010.69 1010.87 1010.95 1010.96 1010.94 1010.94 1011.01 1011.15 1011.38 1011.69 1012.02
1004.78 1005.11 1005.30 1005.39 1005.43 1005.45 1005.49 1005.51 1005.50 1005.40 1005.17 1004.79 1004.26 1003.64 1003.01 1002.46 1002.08 1001.92 1002.03 1002.38 1002.94 1003.64 1004.39 1005.15 1005.86 1006.51 1007.12 1007.69 1008.25 1008.81 1009.35 1009.87 1010.32 1010.68 1010.93 1011.06 1011.12 1011.11 1011.11 1011.15 1011.26 1011.45 1011.73 1012.05
1005.14 1005.32 1005.38 1005.37 1005.37 1005.41 1005.51 1005.65 1005.76 1005.76 1005.60 1005.24 1004.67 1003.95 1003.17 1002.44 1001.88 1001.56 1001.54 1001.81 1002.33 1003.02 1003.80 1004.59 1005.34 1006.03 1006.65 1007.23 1007.80 1008.38 1008.96 1009.53 1010.05 1010.51 1010.85 1011.08 1011.20 1011.25 1011.27 1011.30 1011.39 1011.56 1011.80 1012.10
1005.25 1005.28 1005.22 1005.14 1005.12 1005.21 1005.41 1005.69 1005.95 1006.09 1006.03 1005.71 1005.14 1004.35 1003.46 1002.58 1001.86 1001.40 1001.24 1001.41 1001.85 1002.50 1003.26 1004.04 1004.78 1005.45 1006.05 1006.62 1007.17 1007.75 1008.36 1008.98 1009.59 1010.15 1010.61 1010.96 1011.18 1011.31 1011.37 1011.43 1011.52 1011.67 1011.89 1012.17
1005.09 1005.00 1004.84 1004.73 1004.73 1004.90 1005.23 1005.66 1006.08 1006.38 1006.45 1006.22 1005.67 1004.86 1003.89 1002.91 1002.06 1001.45 1001.17 1001.21 1001.56 1002.12 1002.81 1003.53 1004.21 1004.82 1005.37 1005.88 1006.40 1006.97 1007.59 1008.26 1008.95 1009.61 1010.20 1010.68 1011.03 1011.26 1011.40 1011.50 1011.61 1011.76 1011.97 1012.24
1004.72 1004.53 1004.33 1004.21 1004.27 1004.53 1005.00 1005.59 1006.19 1006.65 1006.85 1006.72 1006.23 1005.44 1004.45 1003.39 1002.45 1001.72 1001.31 1001.23 1001.45 1001.90 1002.48 1003.09 1003.67 1004.19 1004.65 1005.10 1005.56 1006.09 1006.72 1007.43 1008.19 1008.95 1009.66 1010.27 1010.74 1011.08 1011.32 1011.48 1011.63 1011.79 1012.00 1012.25
1004.25 1004.01 1003.79 1003.70 1003.82 1004.19 1004.79 1005.52 1006.27 1006.87 1007.21 1007.18 1006.78 1006.03 1005.05 1003.97 1002.96 1002.16 1001.63 1001.43 1001.51 1001.82 1002.26 1002.75 1003.21 1003.61 1003.98 1004.34 1004.74 1005.24 1005.86 1006.59 1007.40 1008.24 1009.05 1009.77 1010.35 1010.80 1011.11 1011.34 1011.53 1011.72 1011.93 1012.20
1003.81 1003.56 1003.36 1003.32 1003.52 1003.97 1004.66 1005.49 1006.34 1007.04 1007.48 1007.55 1007.22 1006.54 1005.60 1004.54 1003.52 1002.66 1002.05 1001.74 1001.69 1001.86 1002.16 1002.51 1002.84 1003.13 1003.41 1003.69 1004.04 1004.50 1005.10 1005.84 1006.69 1007.58 1008.45 1009.24 1009.90 1010.42 1010.80 1011.09 1011.31 1011.53 1011.76 1012.04
1003.54 1003.32 1003.17 1003.19 1003.44 1003.94 1004.66 1005.53 1006.40 1007.14 1007.62 1007.75 1007.49 1006.88 1006.01 1005.00 1003.99 1003.12 1002.47 1002.07 1001.92 1001.97 1002.13 1002.36 1002.58 1002.79 1002.99 1003.22 1003.53 1003.97 1004.56 1005.29 1006.14 1007.04 1007.93 1008.75 1009.45 1010.00 1010.42 1010.73 1010.99 1011.23 1011.48 1011.79
1003.55 1003.40 1003.31 1003.37 1003.64 1004.13 1004.82 1005.63 1006.44 1007.14 1007.59 1007.73 1007.51 1006.97 1006.17 1005.24 1004.29 1003.45 1002.78 1002.34 1002.12 1002.08 1002.15 1002.28 1002.43 1002.58 1002.75 1002.96 1003.26 1003.70 1004.28 1005.00 1005.82 1006.70 1007.57 1008.37 1009.05 1009.59 1010.01 1010.33 1010.59 1010.85 1011.13 1011.47
1003.89 1003.82 1003.80 1003.89 1004.13 1004.55 1005.12 1005.78 1006.45 1007.01 1007.37 1007.46 1007.25 1006.75 1006.04 1005.20 1004.34 1003.57 1002.94 1002.50 1002.25 1002.16 1002.18 1002.27 1002.39 1002.53 1002.71 1002.94 1003.27 1003.71 1004.29 1004.99 1005.78 1006.60 1007.40 1008.12 1008.74 1009.23 1009.61 1009.91 1010.18 1010.45 1010.76 1011.13
1004.50 1004.53 1004.56 1004.65 1004.83 1005.12 1005.51 1005.96 1006.40 1006.77 1006.97 1006.97 1006.73 1006.27 1005.64 1004.91 1004.17 1003.50 1002.95 1002.56 1002.32 1002.22 1002.23 1002.32 1002.45 1002.63 1002.85 1003.13 1003.51 1003.99 1004.57 1005.25 1005.97 1006.71 1007.41 1008.02 1008.54 1008.95 1009.27 1009.54 1009.80 1010.08 1010.42 1010.84
1005.28 1005.40 1005.48 1005.54 1005.63 1005.75 1005.92 1006.11 1006.29 1006.42 1006.43 1006.31 1006.02 1005.59 1005.05 1004.45 1003.85 1003.31 1002.87 1002.55 1002.37 1002.31 1002.34 1002.46 1002.63 1002.86 1003.15 1003.51 1003.94 1004.46 1005.05 1005.70 1006.35 1006.99 1007.57 1008.06 1008.46 1008.77 1009.02 1009.25 1009.49 1009.79 1010.17 1010.63
1006.10 1006.30 1006.41 1006.44 1006.42 1006.37 1006.30 1006.23 1006.14 1006.02 1005.84 1005.59 1005.27 1004.87 1004.42 1003.96 1003.51 1003.12 1002.81 1002.60 1002.49 1002.48 1002.56 1002.72 1002.94 1003.24 1003.60 1004.02 1004.52 1005.07 1005.66 1006.26 1006.85 1007.38 1007.83 1008.19 1008.47 1008.68 1008.86 1009.05 1009.29 1009.61 1010.03 1010.54
1006.84 1007.09 1007.21 1007.21 1007.09 1006.89 1006.62 1006.31 1005.98 1005.64 1005.30 1004.95 1004.60 1004.25 1003.90 1003.58 1003.30 1003.06 1002.89 1002.79 1002.76 1002.81 1002.93 1003.13 1003.39 1003.73 1004.15 1004.63 1005.16 1005.73 1006.31 1006.87 1007.37 1007.80 1008.14 1008.38 1008.55 1008.68 1008.80 1008.97 1009.21 1009.56 1010.01 1010.57
1007.39 1007.68 1007.81 1007.78 1007.59 1007.27 1006.85 1006.36 1005.85 1005.36 1004.91 1004.50 1004.15 1003.86 1003.63 1003.46 1003.33 1003.25 1003.20 1003.20 1003.24 1003.33 1003.48 1003.69 1003.97 1004.33 1004.76 1005.26 1005.80 1006.37 1006.93 1007.43 1007.87 1008.21 1008.44 1008.59 1008.68 1008.74 1008.83 1008.99 1009.24 1009.62 1010.11 1010.70
1007.73 1008.02 1008.16 1008.13 1007.90 1007.52 1007.02 1006.44 1005.83 1005.26 1004.75 1004.33 1004.02 1003.81 1003.70 1003.65 1003.66 1003.71 1003.77 1003.84 1003.93 1004.04 1004.17 1004.37 1004.62 1004.96 1005.37 1005.85 1006.38 1006.92 1007.44 1007.90 1008.27 1008.54 1008.72 1008.80 1008.84 1008.87 1008.94 1009.10 1009.37 1009.77 1010.29 1010.91
1007.86 1008.15 1008.30 1008.27 1008.06 1007.68 1007.17 1006.57 1005.95 1005.37 1004.87 1004.49 1004.23 1004.10 1004.09 1004.16 1004.27 1004.41 1004.54 1004.65 1004.75 1004.84 1004.94 1005.07 1005.27 1005.55 1005.90 1006.33 1006.81 1007.31 1007.79 1008.21 1008.55 1008.79 1008.93 1008.99 1009.02 1009.05 1009.13 1009.30 1009.60 1010.01 1010.55 1011.17
1007.85 1008.12 1008.28 1008.28 1008.12 1007.79 1007.33 1006.79 1006.22 1005.69 1005.24 1004.91 1004.71 1004.66 1004.71 1004.85 1005.03 1005.22 1005.37 1005.49 1005.56 1005.60 1005.63 1005.69 1005.80 1005.99 1006.28 1006.64 1007.06 1007.52 1007.97 1008.37 1008.69 1008.93 1009.08 1009.16 1009.21 1009.26 1009.37 1009.57 1009.88 1010.31 1010.84 1011.45
1007.78 1008.02 1008.19 1008.24 1008.15 1007.91 1007.54 1007.09 1006.60 1006.14 1005.76 1005.48 1005.34 1005.32 1005.41 1005.57 1005.77 1005.95 1006.09 1006.17 1006.19 1006.16 1006.12 1006.09 1006.12 1006.22 1006.42 1006.72 1007.10 1007.52 1007.95 1008.35 1008.70 1008.97 1009.16 1009.30 1009.40 1009.50 1009.65 1009.89 1010.21 1010.64 1011.16 1011.75
1007.71 1007.92 1008.10 1008.20 1008.18 1008.03 1007.77 1007.43 1007.03 1006.65 1006.32 1006.08 1005.94 1005.93 1006.00 1006.14 1006.29 1006.44 1006.53 1006.55 1006.51 1006.41 1006.30 1006.19 1006.15 1006.18 1006.33 1006.57 1006.92 1007.32 1007.76 1008.19 1008.59 1008.92 1009.18 1009.39 1009.56 1009.74 1009.94 1010.21 1010.55 1010.98 1011.48 1012.04
1007.67 1007.86 1008.04 1008.18 1008.23 1008.17 1008.01 1007.75 1007.43 1007.10 1006.79 1006.55 1006.39 1006.33 1006.34 1006.40 1006.49 1006.56 1006.58 1006.54 1006.44 1006.29 1006.13 1005.98 1005.89 1005.89 1006.00 1006.23 1006.56 1006.98 1007.44 1007.92 1008.37 1008.78 1009.13 1009.42 1009.68 1009.93 1010.19 1010.49 1010.85 1011.28 1011.77 1012.30
1007.68 1007.83 1008.02 1008.18 1008.28 1008.29 1008.19 1008.00 1007.73 1007.41 1007.10 1006.82 1006.59 1006.44 1006.35 1006.32 1006.31 1006.29 1006.24 1006.15 1006.01 1005.84 1005.65 1005.50 1005.41 1005.41 1005.52 1005.75 1006.10 1006.54 1007.04 1007.57 1008.08 1008.56 1008.99 1009.37 1009.71 1010.03 1010.35 1010.69 1011.08 1011.51 1011.99 1012.51
1007.70 1007.84 1008.01 1008.19 1008.32 1008.36 1008.30 1008.14 1007.88 1007.55 1007.20 1006.85 1006.53 1006.27 1006.07 1005.92 1005.81 1005.71 1005.60 1005.47 1005.32 1005.16 1005.00 1004.88 1004.82 1004.85 1005.00 1005.26 1005.63 1006.10 1006.63 1007.19 1007.75 1008.29 1008.78 1009.23 1009.63 1010.01 1010.38 1010.76 1011.18 1011.63 1012.12 1012.64
1007.73 1007.84 1008.01 1008.18 1008.32 1008.38 1008.33 1008.17 1007.89 1007.54 1007.12 1006.69 1006.28 1005.91 1005.60 1005.35 1005.14 1004.98 1004.83 1004.70 1004.56 1004.44 1004.33 1004.27 1004.28 1004.36 1004.55 1004.85 1005.24 1005.72 1006.26 1006.84 1007.42 1007.98 1008.50 1008.98 1009.43 1009.85 1010.26 1010.68 1011.12 1011.60 1012.12 1012.67
1007.74 1007.84 1007.99 1008.16 1008.29 1008.34 1008.29 1008.12 1007.82 1007.42 1006.96 1006.46 1005.96 1005.50 1005.10 1004.77 1004.50 1004.30 1004.14 1004.02 1003.93 1003.86 1003.83 1003.84 1003.92 1004.06 1004.29 1004.61 1005.01 1005.48 1006.00 1006.55 1007.10 1007.64 1008.16 1008.64 1009.10 1009.54 1009.98 1010.43 1010.91 1011.43 1011.98 1012.56
Thickness
5852 5838 5830 5841 5848 5848 5847 5846 5844 5852 5869 5859 5847 5842 5847 5853 5852 5843 5840 5834 5826 5822 5823 5821 5816 5812 5807 5802 5797 5794 5790 5787 5786 5783 5781 5778 5777 5778 5778 5778 5777 5776 5775 5775
5836 5833 5850 5859 5859 5854 5848 5839 5842 5853 5868 5857 5845 5840 5850 5853 5851 5849 5844 5837 5831 5825 5822 5819 5816 5812 5807 5802 5798 5795 5791 5788 5786 5785 5783 5782 5780 5780 5779 5778 5777 5776 5775 5775
5828 5845 5862 5856 5850 5844 5842 5839 5841 5842 5853 5854 5842 5827 5836 5847 5851 5849 5849 5845 5839 5831 5823 5818 5815 5812 5809 5804 5800 5797 5793 5790 5788 5787 5785 5783 5781 5779 5777 5776 5775 5776 5775 5774
5839 5856 5857 5848 5844 5843 5833 5854 5853 5846 5835 5827 5833 5801 5821 5834 5837 5840 5842 5843 5840 5836 5829 5822 5817 5813 5810 5807 5804 5800 5795 5791 5789 5787 5784 5781 5777 5774 5775 5775 5775 5775 5775 5774
5836 5851 5848 5841 5846 5849 5844 5858 5852 5844 5832 5822 5824 5805 5811 5832 5826 5832 5839 5842 5841 5838 5832 5825 5820 5816 5815 5812 5807 5801 5796 5792 5789 5787 5784 5781 5779 5777 5777 5777 5775 5774 5774 5774
5845 5861 5859 5853 5859 5859 5857 5851 5846 5840 5828 5802 5816 5807 5803 5826 5829 5833 5838 5841 5840 5837 5834 5828 5824 5819 5815 5813 5808 5803 5796 5791 5789 5786 5784 5781 5778 5777 5775 5773 5772 5772 5772 5772
5831 5847 5860 5863 5846 5851 5848 5823 5800 5791 5789 5799 5829 5814 5808 5833 5845 5843 5837 5835 5836 5835 5833 5827 5822 5817 5813 5810 5807 5803 5796 5791 5789 5786 5784 5782 5780 5777 5775 5773 5773 5771 5770 5770
5814 5822 5848 5855 5845 5835 5838 5827 5795 5772 5775 5799 5820 5808 5819 5842 5849 5849 5844 5839 5835 5833 5830 5826 5822 5817 5812 5809 5806 5801 5795 5791 5789 5786 5784 5782 5780 5778 5776 5775 5774 5773 5772 5771
5814 5818 5849 5857 5857 5846 5829 5828 5836 5812 5799 5790 5800 5811 5825 5842 5841 5841 5838 5835 5830 5829 5825 5824 5822 5817 5812 5808 5805 5801 5795 5790 5788 5785 5783 5781 5779 5778 5776 5775 5774 5773 5772 5771
5822 5808 5834 5851 5850 5848 5842 5837 5827 5808 5783 5774 5787 5794 5801 5819 5826 5830 5829 5828 5827 5825 5821 5821 5819 5815 5812 5809 5805 5801 5796 5791 5787 5784 5782 5781 5779 5777 5776 5774 5772 5771 5771 5770
5828 5807 5818 5833 5824 5823 5828 5825 5818 5809 5799 5780 5767 5780 5822 5823 5827 5826 5827 5826 5824 5822 5819 5819 5817 5814 5810 5807 5802 5797 5793 5789 5786 5784 5781 5779 5778 5776 5774 5772 5771 5770 5769 5768
5825 5813 5803 5818 5841 5845 5833 5826 5820 5798 5791 5796 5783 5784 5829 5831 5831 5829 5825 5823 5822 5820 5819 5815 5813 5809 5805 5801 5797 5792 5789 5786 5784 5782 5780 5778 5776 5774 5772 5770 5769 5768 5766 5765
5815 5802 5785 5793 5813 5826 5822 5824 5825 5822 5810 5797 5786 5784 5824 5826 5824 5824 5821 5817 5815 5812 5811 5808 5805 5801 5798 5795 5793 5789 5785 5784 5783 5780 5777 5775 5772 5770 5768 5767 5766 5765 5763 5762
5812 5796 5787 5778 5791 5807 5806 5813 5818 5811 5796 5792 5791 5791 5804 5810 5809 5811 5811 5809 5807 5804 5801 5799 5795 5793 5792 5791 5789 5786 5783 5781 5779 5776 5773 5770 5768 5767 5765 5764 5762 5760 5759 5757
5805 5788 5792 5799 5808 5810 5805 5806 5809 5805 5803 5793 5792 5793 5796 5802 5802 5802 5802 5801 5797 5794 5791 5789 5787 5785 5785 5784 5783 5781 5779 5777 5775 5772 5769 5766 5765 5763 5761 5759 5757 5756 5754 5753
5796 5782 5784 5785 5799 5801 5796 5803 5805 5804 5804 5800 5796 5789 5801 5803 5800 5795 5791 5791 5787 5785 5784 5782 5780 5778 5776 5775 5775 5774 5772 5772 5769 5766 5763 5762 5761 5758 5755 5753 5752 5750 5749 5747
5783 5773 5765 5767 5785 5784 5777 5795 5797 5798 5802 5797 5782 5785 5793 5791 5788 5785 5783 5784 5781 5779 5777 5775 5773 5772 5771 5770 5769 5767 5767 5766 5763 5759 5757 5756 5754 5752 5749 5748 5745 5743 5742 5740
5771 5764 5762 5761 5761 5743 5777 5805 5803 5794 5794 5796 5790 5789 5788 5786 5784 5785 5784 5780 5775 5773 5771 5769 5768 5766 5766 5766 5765 5763 5761 5759 5756 5753 5751 5749 5747 5745 5743 5740 5738 5737 5735 5733
5776 5760 5752 5751 5747 5754 5777 5791 5792 5783 5779 5791 5787 5784 5783 5782 5774 5772 5777 5776 5771 5768 5766 5764 5763 5762 5760 5758 5757 5756 5753 5751 5749 5746 5744 5742 5740 5737 5735 5732 5731 5730 5728 5726
5769 5762 5747 5744 5736 5736 5761 5784 5794 5781 5761 5782 5781 5774 5774 5770 5753 5754 5766 5767 5764 5762 5760 5758 5757 5755 5752 5751 5750 5746 5744 5741 5739 5739 5737 5736 5734 5731 5728 5725 5724 5723 5721 5719
5744 5742 5738 5736 5734 5747 5768 5782 5781 5750 5748 5773 5774 5769 5767 5761 5757 5758 5761 5758 5756 5754 5752 5752 5749 5746 5744 5743 5741 5737 5735 5733 5733 5732 5731 5728 5726 5724 5722 5719 5717 5716 5714 5712
5737 5734 5732 5733 5727 5733 5765 5769 5756 5751 5765 5766 5764 5762 5759 5756 5755 5753 5751 5749 5747 5746 5745 5744 5740 5737 5737 5736 5733 5730 5727 5727 5726 5725 5723 5721 5719 5718 5716 5713 5710 5708 5705 5703
5740 5738 5736 5733 5732 5745 5757 5755 5757 5761 5756 5756 5753 5752 5750 5746 5744 5743 5741 5740 5739 5738 5737 5735 5732 5730 5729 5728 5725 5721 5721 5720 5719 5716 5714 5713 5712 5710 5708 5706 5703 5700 5698 5695
5742 5747 5738 5731 5736 5744 5748 5751 5752 5753 5751 5749 5747 5745 5742 5737 5736 5733 5732 5730 5729 5729 5727 5724 5722 5720 5719 5720 5718 5716 5714 5713 5712 5709 5707 5706 5704 5702 5701 5699 5696 5693 5690 5687
5732 5733 5729 5725 5730 5735 5737 5739 5741 5742 5743 5741 5739 5737 5734 5731 5727 5725 5722 5721 5720 5719 5719 5717 5714 5712 5711 5711 5710 5709 5707 5706 5704 5702 5701 5700 5698 5695 5692 5690 5688 5686 5683 5681
5729 5726 5719 5715 5724 5723 5725 5733 5735 5732 5731 5731 5729 5727 5727 5724 5720 5718 5715 5713 5712 5711 5710 5709 5707 5705 5705 5703 5701 5700 5700 5698 5696 5694 5694 5694 5692 5690 5688 5684 5680 5677 5675 5673